GORIZONT 25 1 21922U 92017A 10208.59021408 +.00000033 +00000-0 +10000-3 0 03719 2 21922 012.2805 038.1792 0026838 313.7505 046.1011 00.99843981066991 GORIZONT 26 1 22041U 92043A 10211.19185345 -.00000030 00000-0 10000-3 0 9884 2 22041 012.1625 039.5427 0029929 113.2485 247.1473 00.99244129 65923 GORIZONT 27 1 22245U 92082A 10210.24503430 .00000009 00000-0 10000-3 0 5653 2 22245 012.0715 040.5039 0013066 240.4082 119.5559 01.00204356 69023 GORIZONT 28 1 22880U 93069A 10208.28950161 .00000000 00000-0 10000-3 0 3831 2 22880 011.6280 043.8065 0034881 008.9634 351.1811 00.99655361 61304 GORIZONT 29 1 22907U 93072A 10209.41690420 -.00000297 +00000-0 +10000-3 0 07743 2 22907 011.6037 043.8398 0011166 215.2969 144.7073 01.00140779061095 GORIZONT 30 1 23108U 94030A 10209.30119716 -.00000089 00000-0 10000-3 0 5965 2 23108 011.4599 045.0650 0000501 027.8651 332.2224 01.00278772 59309 GORIZONT 31 1 23775U 96005A 10209.78779252 -.00000019 +00000-0 +10000-3 0 09875 2 23775 010.4660 050.6892 0020194 076.0908 284.2322 00.99899571053096 GORIZONT 32 1 23880U 96034A 10210.83010943 -.00000362 00000-0 10000-3 0 5212 2 23880 010.3379 051.6433 0015446 183.1808 125.0463 01.00579349 51923 GORIZONT 33 1 26372U 00029A 10210.37938130 -.00000183 +00000-0 +10000-3 0 07264 2 26372 007.6325 060.5944 0003150 332.5848 027.4922 01.00243867037259